Lid_Strength_Index
17 19 20 18 14 17 17 18 18 17 16 17 18 17 16 14 15 16 15 15 14 15 14 13 13 13 13 13 12 11 11 11 11 11 12 11 11 10 10 9 8 8 8 8
19 20 17 17 17 16 17 18 18 17 16 17 18 19 17 15 15 15 15 15 14 14 15 14 13 13 13 12 11 11 11 11 11 10 10 11 11 10 9 9 9 8 8 8
19 18 17 17 18 18 18 17 18 17 17 18 19 19 17 17 16 15 14 14 14 14 14 15 14 13 11 10 10 10 10 10 10 10 12 11 11 12 11 10 9 8 8 8
18 18 18 19 19 18 19 18 17 17 18 22 20 23 19 17 16 16 15 14 14 14 14 14 14 13 12 11 10 10 10 10 10 10 11 12 11 11 10 9 9 9 8 8
19 19 18 19 19 18 19 19 19 19 20 21 22 22 21 19 18 16 15 14 14 15 15 15 15 13 12 11 11 10 10 11 11 11 11 10 10 10 10 10 9 9 9 8
18 18 18 18 18 18 18 19 19 21 22 26 22 21 20 19 18 17 15 14 13 13 13 14 15 13 13 11 11 11 11 11 10 10 10 10 10 11 11 10 10 9 9 9
19 19 18 17 18 17 18 20 24 27 28 25 24 23 19 17 16 16 15 15 14 14 14 14 15 15 14 13 11 11 11 11 11 11 11 11 10 10 10 10 10 10 10 10
20 22 19 18 18 18 19 19 22 26 26 24 22 24 20 18 16 16 15 14 14 14 14 13 14 15 15 13 12 11 11 11 11 11 11 10 11 11 11 10 10 10 9 9
22 20 18 17 18 17 19 20 19 22 26 24 21 20 18 16 16 16 15 15 14 14 14 13 13 14 15 14 13 12 12 12 12 11 11 11 12 12 12 11 10 10 10 11
17 21 18 18 17 19 19 17 21 22 27 28 22 22 20 16 16 16 16 16 15 15 14 14 14 14 14 14 14 13 12 12 12 11 11 11 12 11 11 12 12 11 11 11
16 16 20 18 20 19 20 21 21 20 21 23 25 21 18 18 16 17 17 16 16 16 16 16 15 15 15 14 14 13 13 12 12 12 12 12 12 12 12 12 12 12 12 12
14 16 20 21 19 18 18 18 19 22 24 23 22 21 16 16 16 16 17 16 16 16 16 16 16 16 15 15 14 14 13 13 12 12 12 12 12 12 12 12 12 12 12 13
13 15 24 18 17 18 22 19 18 18 20 23 23 21 17 17 17 17 17 16 15 15 15 15 15 16 16 15 15 14 14 14 13 13 13 13 13 13 12 12 12 12 12 12
11 14 16 17 17 19 22 21 18 17 20 19 19 19 18 18 18 18 17 16 16 16 16 16 16 16 16 16 16 15 15 14 13 13 13 13 13 12 12 12 12 12 13 13
14 17 14 13 14 17 19 20 19 19 17 18 16 18 17 17 17 18 17 17 18 18 18 18 17 17 17 16 17 16 16 15 14 14 14 13 13 13 13 13 12 12 12 13
15 19 16 15 13 13 15 14 18 16 16 15 16 17 16 16 17 18 18 18 18 18 18 18 18 18 17 17 17 17 16 16 15 14 14 13 13 13 13 13 13 13 13 13
16 16 19 20 16 15 17 14 18 15 14 14 17 14 14 16 18 19 19 19 19 18 19 18 18 18 18 18 18 18 16 15 15 15 14 14 13 13 13 13 13 13 13 13
14 15 15 18 20 23 14 16 15 13 16 16 15 17 17 18 18 18 18 19 19 19 19 19 20 19 19 19 19 17 16 16 16 16 16 15 14 14 14 14 14 13 13 13
10 14 16 19 20 16 15 17 18 18 19 17 18 18 17 17 17 18 18 18 19 19 19 19 19 19 19 20 20 18 17 18 18 18 17 16 16 15 15 14 14 13 13 14
11 11 15 18 20 22 19 16 13 14 22 16 17 17 18 16 19 20 18 18 19 19 19 20 20 20 20 21 20 19 19 19 21 20 18 17 16 16 15 14 14 13 13 13
20 18 19 20 20 17 14 13 13 20 21 15 16 17 18 19 19 17 17 18 17 18 20 20 21 21 21 21 22 22 21 22 21 20 19 17 16 16 15 14 14 14 14 14
18 20 22 20 19 21 13 13 18 15 14 15 16 17 17 17 17 18 17 17 18 19 19 19 21 21 22 22 23 24 23 22 22 22 20 19 17 16 15 15 14 15 14 14
19 15 17 15 16 12 11 12 13 13 14 16 16 17 18 19 19 19 19 18 19 19 20 20 21 21 22 23 23 25 24 23 24 23 22 20 18 16 16 15 15 15 15 15
14 13 12 13 15 13 13 14 14 14 16 17 18 18 19 20 19 19 19 19 20 20 21 21 22 22 23 23 24 24 24 24 25 25 23 21 20 18 16 15 15 15 15 15
11 13 15 13 10 11 13 15 15 15 16 17 18 19 20 20 20 20 20 20 21 21 21 22 22 22 23 22 23 24 24 25 26 25 24 22 20 19 17 15 15 15 14 14
13 15 13 13 15 15 14 15 16 17 18 18 19 20 19 21 21 21 21 21 22 22 23 23 23 23 24 24 24 24 24 24 26 25 23 22 21 19 17 16 15 13 12 12